Weather History for West Plains, MO

Change the Weather History Date:

Wednesday, May 8, 2013

  Actual Average Record
Temperature  
Mean Temperature 64 °F 63 °F  
Max Temperature 77 °F 75 °F 90 °F (1962)
Min Temperature 51 °F 52 °F 33 °F (1992)
Degree Days  
Heating Degree Days 1 4  
Month to date heating degree days 87 33  
Since 1 July heating degree days 4449 4295  
Cooling Degree Days 0 2  
Month to date cooling degree days 2 12  
Year to date cooling degree days 21 40  
Growing Degree Days 13 (Base 50)    
Moisture  
Dew Point 54 °F    
Average Humidity 71    
Maximum Humidity 100    
Minimum Humidity 41    
Precipitation  
Precipitation 0.00 in 0.20 in 4.95 in (2002)
Month to date precipitation 1.45 1.68  
Year to date precipitation 17.73 16.01  
Sea Level Pressure  
Sea Level Pressure 30.02 in    
Wind  
Wind Speed 5 mph (SW)    
Max Wind Speed 12 mph    
Max Gust Speed 28 mph    
Visibility 10 miles    
Events      
T = Trace of Precipitation, MM = Missing Value Source: NWS Daily Summary

Daily Weather History Graph

Daily Weather History Graph

Search for Another Location

Airport:

Trip Planner

Search our weather history database for the weather conditions in past years. The results will help you decide how hot, cold, wet, or windy it might be!

Date:

Astronomy

May. 08, 2013 Rise Set
Actual Time 6:05 AM CDT 8:02 PM CDT
Civil Twilight 5:37 AM CDT 8:31 PM CDT
Nautical Twilight 5:03 AM CDT 9:05 PM CDT
Astronomical Twilight 4:26 AM CDT 9:43 PM CDT
Moon 5:12 AM CDT (5/8) 7:02 PM CDT (5/8)
Length of Visible Light 14h 53m
Length of Day
13h 56m
Waning Crescent, 2% of the Moon is Illuminated
May 8
Waning Crescent
May 9
New
May 17
First Quarter
May 24
Full
May 31
Last Quarter

Hourly Weather History & Observations

Time (CDT) Temp. Dew Point Humidity Pressure Visibility Wind Dir Wind Speed Gust Speed Precip Events Conditions
12:53 AM 54.0 °F 53.1 °F 97% 30.02 in 10.0 mi Calm Calm - N/A   Overcast
1:53 AM 54.0 °F 52.0 °F 93% 30.01 in 10.0 mi Calm Calm - N/A   Mostly Cloudy
2:53 AM 51.1 °F 50.0 °F 96% 30.02 in 10.0 mi Calm Calm - N/A   Clear
3:53 AM 52.0 °F 51.1 °F 97% 30.02 in 10.0 mi Calm Calm - N/A   Clear
4:53 AM 55.9 °F 53.1 °F 90% 30.01 in 10.0 mi WSW 4.6 mph - 0.01 in   Clear
5:53 AM 55.9 °F 53.1 °F 90% 30.01 in 10.0 mi WSW 5.8 mph - N/A   Clear
6:53 AM 57.9 °F 55.0 °F 90% 30.04 in 10.0 mi West 4.6 mph - N/A   Clear
7:53 AM 63.0 °F 57.0 °F 81% 30.05 in 10.0 mi West 5.8 mph - N/A   Clear
8:53 AM 69.1 °F 57.0 °F 65% 30.05 in 10.0 mi West 6.9 mph - N/A   Clear
9:53 AM 72.0 °F 55.0 °F 55% 30.06 in 10.0 mi West 6.9 mph - N/A   Clear
10:53 AM 75.0 °F 53.1 °F 46% 30.06 in 10.0 mi West 5.8 mph - N/A   Clear
11:53 AM 75.9 °F 52.0 °F 43% 30.06 in 10.0 mi Variable 5.8 mph - N/A   Mostly Cloudy
12:53 PM 75.9 °F 50.0 °F 40% 30.04 in 10.0 mi South 5.8 mph - N/A   Clear
1:53 PM 73.9 °F 50.0 °F 43% 30.04 in 10.0 mi SW 10.4 mph - N/A   Mostly Cloudy
2:53 PM 75.0 °F 51.1 °F 43% 30.04 in 10.0 mi South 5.8 mph - N/A   Mostly Cloudy
3:53 PM 73.9 °F 52.0 °F 46% 30.04 in 10.0 mi NNW 8.1 mph - N/A   Mostly Cloudy
4:53 PM 70.0 °F 55.0 °F 59% 29.98 in 10.0 mi East 4.6 mph - 0.00 in   Clear
5:53 PM 72.0 °F 55.0 °F 55% 29.99 in 10.0 mi Calm Calm - N/A   Mostly Cloudy
6:53 PM 70.0 °F 59.0 °F 68% 29.98 in 10.0 mi ENE 3.5 mph - 0.00 in   Overcast
7:53 PM 68.0 °F 57.9 °F 70% 29.98 in 10.0 mi ENE 3.5 mph - 0.00 in   Mostly Cloudy
8:53 PM 66.0 °F 57.9 °F 75% 29.98 in 10.0 mi SE 3.5 mph - N/A   Scattered Clouds
9:53 PM 64.9 °F 55.9 °F 73% 29.97 in 10.0 mi SSE 4.6 mph - N/A   Clear
10:53 PM 66.0 °F 55.9 °F 70% 29.97 in 10.0 mi SSE 5.8 mph - N/A   Clear
11:53 PM 64.0 °F 55.9 °F 75% 29.99 in 10.0 mi South 5.8 mph - N/A   Clear